Hourly Data Report for January 25, 2012

HALIFAX STANFIELD INT'L A
NOVA SCOTIA

44°52'48.060" N
63°30'00.050" W
145.40 m
8202250
71395
YHZ

Download Data

Hourly Data (January 2012)
Hourly Data Report for January 25, 2012
TIME
LST
Temp Definition
°C
Dew Point Definition
°C
Rel Hum Definition
%
Precip. Amount Definition
mm

Wind Dir Definition
10's deg

Wind Spd Definition
km/h
Visibility Definition
km
Stn Press Definition
kPa
Hmdx Definition


Wind Chill Definition


Weather Definition


00:00 5.6 5.6 100   21 13 2.4 99.37     Fog
01:00 4.4 4.4 100   21 7 0.4 99.31     Fog
02:00 4.6 4.6 100   26 6 2.4 99.32     Fog
03:00 4.6 4.6 100   24 7 4.8 99.33     Fog
04:00 4.4 4.4 100   26 6 9.7 99.29     Fog
05:00 3.8 3.8 100   1 6 9.7 99.29     Fog
06:00 3.6 3.6 100   1 4 16.1 99.29     Cloudy
07:00 3.2 1.7 90   31 9 19.3 99.33     Cloudy
08:00 2.7 2.5 99   28 9 24.1 99.32     Cloudy
09:00 2.4 1.4 93   28 13 24.1 99.34     Cloudy
10:00 1.6 0.2 90   30 17 24.1 99.40     Cloudy
11:00 1.7 -0.3 87   29 15 24.1 99.42     Mostly Cloudy
12:00 2.6 -0.2 82   29 26 24.1 99.35     Mostly Cloudy
13:00 2.4 -1.0 78   30 28 24.1 99.35     Mostly Cloudy
14:00 2.5 -1.5 75   30 19 24.1 99.36     Mostly Cloudy
15:00 3.4 -1.0 73   31 19 24.1 99.40     Mostly Cloudy
16:00 2.1 -2.4 72   28 17 24.1 99.43     Mostly Cloudy
17:00 1.7 -2.4 74   27 13 24.1 99.47     Mostly Cloudy
18:00 0.6 -1.7 85   27 9 24.1 99.52     Mostly Cloudy
19:00 1.2 -2.7 75   29 15 24.1 99.58     Cloudy
20:00 0.8 -3.7 72   28 19 24.1 99.59     Cloudy
21:00 -0.1 -4.2 74   29 15 24.1 99.60   -5 Mainly Clear
22:00 -0.8 -4.7 75   28 17 24.1 99.62   -6 Mainly Clear
23:00 -1.5 -4.5 80   28 15 24.1 99.63   -6 Clear

Notes on Data Quality.

Legend

  • E = Estimated
  • M = Missing
  • NA = Not Available*
  • [empty] = Indicates an unobserved value
Date modified: